Miscellaneous Local Product
Issued by NWS Hastings, NE

Home | Current Version | Previous Version | Text Only | Print | Product List | Glossary Off
Versions: 1 2 3 4 5 6 7 8 9 10 11 12 13 14 15 16 17 18 19 20 21 22 23 24 25 26 27 28 29 30 31 32 33 34 35 36 37 38 39 40 41 42 43 44 45 46 47 48 49 50

000
AXUS43 KGID 280202
MISGRI

GID CWA HOURLY WEATHER ROUNDUP
NATIONAL WEATHER SERVICE HASTINGS NE
800 PM CST TUE JAN 27 2015

NOTE: "FAIR" INDICATES FEW OR NO CLOUDS BELOW 12,000 FEET WITH NO
SIGNIFICANT WEATHER AND/OR OBSTRUCTIONS TO VISIBILITY.

...SOUTH CENTRAL NEBRASKA...

CITY           SKY/WX    TMP DP  RH WIND       PRES   REMARKS
GRAND ISLAND   CLEAR     46  33  60 SE8       29.95S
HASTINGS       CLEAR     51  32  48 SE13      29.93F
KEARNEY        CLEAR     46  28  49 SE7       29.94R
ORD            CLEAR     43  32  65 SE5       29.91S
YORK           CLEAR     48  32  53 SE13      29.97S
AURORA         CLEAR     40  30  68 SE10      29.96S WCI  33
LEXINGTON      CLEAR     50  32  49 S6        29.92S
HOLDREGE       PTCLDY    47  29  48 SE5       29.93S
HEBRON         CLEAR     49  31  51 SE5       29.97S

...NEBRASKA PANHANDLE...

CITY           SKY/WX    TMP DP  RH WIND       PRES   REMARKS
CHADRON        CLOUDY    42  33  70 SW6       29.90S
ALLIANCE       CLOUDY    39  30  70 W9        29.95R WCI  33
SCOTTSBLUFF      N/A    N/A N/A N/A MISG      29.97R
SIDNEY         MOCLDY    40  30  67 W8        29.98S WCI  34

...WESTERN AND NORTH CENTRAL NEBRASKA...

CITY           SKY/WX    TMP DP  RH WIND       PRES   REMARKS
VALENTINE      CLEAR     43  32  65 CALM      29.87F
AINSWORTH      CLEAR     41  31  68 S6        29.88S
ONEILL         CLEAR     44  36  72 SE7       29.92S
BROKEN BOW     CLEAR     35  28  75 CALM      29.91S
IMPERIAL       MOCLDY    51  27  39 CALM      29.94S
NORTH PLATTE   PTCLDY    38  28  67 CALM      29.92F
MCCOOK         PTCLDY    52  31  44 S5        29.92S

...EASTERN NEBRASKA...

CITY           SKY/WX    TMP DP  RH WIND       PRES   REMARKS
NORFOLK        CLEAR     41  32  70 SE12      29.97S
SO SIOUX CITY  CLEAR     37  31  78 SE9       30.02S WCI  30
TEKAMAH        CLEAR     38  30  73 SE9       30.03F WCI  31
COLUMBUS       CLEAR     43  28  56 SE9       30.00S
ALBION         CLEAR     37  30  75 SE7       29.96S WCI  32
OMAHA EPPLEY   CLEAR     44  30  57 SE12      30.05S
OFFUTT AFB     CLEAR     40  29  66 E9        30.04F WCI  34
MILLARD        CLEAR     43  32  63 SE5       30.04S
LINCOLN        CLEAR     47  31  53 SE13      30.02S
NEBRASKA CITY  CLEAR     44  26  49 SE7       30.04F
BEATRICE       CLEAR     45  31  57 SE8       30.00S
FALLS CITY     CLEAR     42  29  59 SE10      30.05F

...NORTHERN KANSAS...

CITY           SKY/WX    TMP DP  RH WIND       PRES   REMARKS
GOODLAND       CLOUDY    53  29  39 S9        29.98S
HILL CITY      CLEAR     47  28  47 CALM      29.93F
NORTON         CLEAR     48  25  40 E3        29.93R
PHILLIPSBURG   CLEAR     52  32  46 NE6       29.93S
SMITH CENTER   CLEAR     50  30  46 E13       29.92F
BELOIT         CLEAR     57  36  44 E13       29.91F
HAYS           CLEAR     57  27  30 S6        29.94F
RUSSELL        CLEAR     58  29  33 SW14      29.91F
CONCORDIA      CLEAR     53  35  50 SE12      29.94F
SALINA         CLEAR     57  38  48 S10       29.93F
TOPEKA         CLEAR     48  32  53 E12       30.06R



USA.gov is the U.S. government's official web portal to all federal, state and local government web resources and services.